Location: Hylvaty SDH
(49.9612°N, 16.4057°E)
Time: 23:35:58
(UTC+01:00)

Courier 1B Rocket - Pass Details

Date: 09 October 2020
Orbit: 920 x 1202 km, 28.2° (Epoch: 30 October)

Event Time Altitude Azimuth Distance (km) Brightness Sun altitude
Exits shadow 04:43:59 10° 184° (S) 2,818 7.2 -23.5°
Reaches altitude 10° 04:44:00 10° 184° (S) 2,817 7.2 -23.5°
Maximum altitude 04:44:48 10° 177° (S) 2,788 7.2 -23.4°
Drops below altitude 10° 04:45:37 10° 170° (S) 2,793 7.3 -23.3°
Sets 04:51:26 0° 130° (SE) 3,658 8.4 -22.4°
